NIMBUS 2 DEB, 28977

Orbit data source: Space-Track

NIMBUS 2 DEB, 28977 is space debris in SSO originally from a launch on Sun, 15 May 1966 UTC launched from the Air Force Western Test Range (AFWTR). Debris objects in space refer to the collection of defunct objects orbiting the Earth. Examples of debris include non-operational satellites, rocket bodies, and fragments generated from explosions, collisions, or faulty payload assembly.

Loading next visibility...
Identifier
28977, 1966-040AN
Orbit
SSO
Country
Flag of USUS
Related business
Manufacturer
Unknown
Mission
Spacecraft
Bus & Motor
Unknown
Mass
Unknown
Launch date (UTC)
1966-05-15 (60 years ago)
Launch vehicle
Unknown
Launch site
Air Force Western Test Range (AFWTR)
Object type
Payload
Rocket body
Debris
Shape & HBR
Unknown shape, 0.1 m
Radar Cross Section
Small (<0.1 m²)

Expand to show TLE details & history
Last TLE update: 19 hours ago

TLE from 19 hours ago
0 NIMBUS 2 DEB
1 28977U 66040AN  26105.86082947  .00001089  00000-0  16881-2 0  9991
2 28977 100.4673  64.8253 0046928 209.0126 176.6913 13.53254642  4342
Epoch: 2026-04-15T20:39Z
TLE epoch observation values (Epoch: 2026-04-15T20:39:35.666Z)
Latitude
25.30653°
Longitude
-94.07578°
Altitude
1,098.093 km
Speed
7.288 km/s
True Right ascension
03h 59m 21s
True Declination
25° 10' 48"
Sunlit
Object was in daylight at epoch
Visualization orbit readout
Latitude
Unknown
Longitude
Unknown
Altitude
Unknown
Speed
Unknown
Apparent Right ascension
Unknown
Apparent Declination
Unknown
Sunlit
N/A
Visualization observer readout
Local Sidereal Time
22:29:50
Azimuth
Unknown
Elevation
Unknown
Doppler factor
Unknown
Orbital elements
Apogee altitude
1,092.541 km
Perigee altitude
1,022.751 km
Semi-major axis
7,435.783 km
Eccentricity
0.00469
Inclination
100.4673°
RAAN
64.8253°
Arg. of periapsis
209.0126°
True anomaly
176.72216°
Mean anomaly
176.6913°
Eccentric anomaly
176.70675°
Mean motion
3.38496 °/min
Orbital period
106.35 mins
BSTAR
0.0016881
Loading maneuver chart data...
Computing Atmospheric mass density...
Loading historical data...
Loading historical data...
Loading historical data...
Loading historical data...
Loading historical data...
Loading historical data...
Loading historical data...

Documentation

Showing up to 5 results
|